This is the latest recevied weather packets stored in our database for station/object K4KJQ-13. If no packets are shown the sender has not sent any weather packets the latest 1 day(s).
| Time | Temp. | Humidity | Pressure | Rain* | Wind** | Luminosity | Snow |
|---|---|---|---|---|---|---|---|
| 1778060770 | 11.11° C | 100% | 0 hPa | 1.52 mm | - | - | - |
| 1778059870 | 12.22° C | 100% | 0 hPa | 1.52 mm | - | - | - |
| 1778059570 | 12.22° C | 100% | 0 hPa | 1.52 mm | - | - | - |
| 1778059270 | 13.89° C | 100% | 0 hPa | 1.27 mm | - | - | - |
| 1778058970 | 13.89° C | 100% | 0 hPa | 1.27 mm | - | - | - |
| 1778058670 | 13.89° C | 100% | 0 hPa | 1.02 mm | - | - | - |
| 1778057770 | 14.44° C | 100% | 0 hPa | 0.76 mm | - | - | - |
| 1778057470 | 14.44° C | 100% | 0 hPa | 1.02 mm | - | - | - |
| 1778057170 | 14.44° C | 100% | 0 hPa | 1.27 mm | - | - | - |
| 1778055970 | 15° C | 100% | 0 hPa | 2.29 mm | - | - | - |
| 1778053870 | 14.44° C | 100% | 0 hPa | 7.11 mm | - | - | - |
| 1778052670 | 14.44° C | 100% | 0 hPa | 6.35 mm | - | - | - |
| 1778052070 | 15° C | 100% | 0 hPa | 6.1 mm | - | - | - |
| 1778051470 | 14.44° C | 100% | 0 hPa | 6.35 mm | - | - | - |
| 1778051170 | 15° C | 100% | 0 hPa | 7.37 mm | - | - | - |
| 1778050870 | 14.44° C | 100% | 0 hPa | 6.1 mm | - | - | - |
| 1778046070 | 15° C | 100% | 0 hPa | 0 mm | - | - | - |
| 1778045770 | 15° C | 100% | 0 hPa | 0 mm | - | - | - |
| 1778043970 | 15° C | 100% | 0 hPa | 0 mm | - | - | - |
| 1778043670 | 15° C | 100% | 0 hPa | 0 mm | - | - | - |
| 1778043371 | 15° C | 100% | 0 hPa | 0.25 mm | - | - | - |
| 1778043070 | 14.44° C | 100% | 0 hPa | 0.51 mm | - | - | - |
| 1778042470 | 14.44° C | 100% | 0 hPa | 1.52 mm | - | - | - |
| 1778042170 | 15° C | 100% | 0 hPa | 1.52 mm | - | - | - |
| 1778041870 | 14.44° C | 100% | 0 hPa | 1.52 mm | - | - | - |
* Rain latest hour (hover to see other rain measurements)
** Current wind speed in m/s (hover to see current wind gust speed)